THORAD AGENA D DEB, 42552

Orbit data source: Space-Track

THORAD AGENA D DEB, 42552 is space debris in SSO originally from a launch on Wed, 08 Apr 1970 UTC launched from the Air Force Western Test Range (AFWTR). Debris objects in space refer to the collection of defunct objects orbiting the Earth. Examples of debris include non-operational satellites, rocket bodies, and fragments generated from explosions, collisions, or faulty payload assembly.

Loading next visibility...
Identifier
42552, 1970-025TJ
Orbit
SSO
Country
Flag of USUS
Related business
Manufacturer
Unknown
Mission
Spacecraft
Bus & Motor
Unknown
Mass
Unknown
Launch date (UTC)
1970-04-08 (56 years ago)
Launch vehicle
Unknown
Launch site
Air Force Western Test Range (AFWTR)
Object type
Payload
Rocket body
Debris
Shape & HBR
Unknown shape, 0.1 m
Radar Cross Section
Small (<0.1 m²)

Expand to show TLE details & history
Last TLE update: 1 day ago

TLE from 1 day ago
0 THORAD AGENA D DEB
1 42552U 70025TJ  26122.07088599  .00001352  00000-0  21994-2 0  9999
2 42552  99.3937  61.5249 0177156  25.5386 335.4369 13.43683844607597
Epoch: 2026-05-02T01:42Z
TLE epoch observation values (Epoch: 2026-05-02T01:42:04.549Z)
Latitude
-0.00001°
Longitude
176.01189°
Altitude
978.349 km
Speed
7.421 km/s
True Right ascension
04h 06m 05s
True Declination
0° 00' 00"
Sunlit
Object was in daylight at epoch
Visualization orbit readout
Latitude
Unknown
Longitude
Unknown
Altitude
Unknown
Speed
Unknown
Apparent Right ascension
Unknown
Apparent Declination
Unknown
Sunlit
N/A
Visualization observer readout
Local Sidereal Time
13:00:11
Azimuth
Unknown
Elevation
Unknown
Doppler factor
Unknown
Orbital elements
Apogee altitude
1,225.235 km
Perigee altitude
960.527 km
Semi-major axis
7,471.018 km
Eccentricity
0.01772
Inclination
99.3937°
RAAN
61.5249°
Arg. of periapsis
25.5386°
True anomaly
334.57572°
Mean anomaly
335.4369°
Eccentric anomaly
335.00806°
Mean motion
3.36104 °/min
Orbital period
107.11 mins
BSTAR
0.0021994
Loading maneuver chart data...
Computing Atmospheric mass density...

Documentation

Showing up to 5 results
|